Weather History for MZBZ - November, 2012

Change the Weather History Date:

Sunday, November 18, 2012

  Actual Average Record
Temperature  
Mean Temperature 74 °F -  
Max Temperature 83 °F 83 °F 87 °F (2000)
Min Temperature 64 °F 70 °F 62 °F (2002)
Cooling Degree Days 8    
Growing Degree Days 24 (Base 50)    
Moisture  
Dew Point 66 °F    
Average Humidity 75    
Maximum Humidity 100    
Minimum Humidity 41    
Precipitation  
Precipitation 0.00 in 0.23 in - ()
Sea Level Pressure  
Sea Level Pressure 30.07 in    
Wind  
Wind Speed 6 mph ()    
Max Wind Speed 10 mph    
Max Gust Speed -    
Visibility 8.5 miles    
Events Rain    
Averages and records for this station are not official NWS values.
T = Trace of Precipitation, MM = Missing Value Source: Averaged Metar Reports

Daily Weather History Graph

Daily Weather History Graph

Search for Another Location

Airport or City:

Trip Planner

Search our weather history database for the weather conditions in past years. The results will help you decide how hot, cold, wet, or windy it might be!

Date:

Astronomy

Nov. 18, 2012 Rise Set
Actual Time 6:00 AM CST 5:16 PM CST
Civil Twilight 5:37 AM CST 5:39 PM CST
Nautical Twilight 5:10 AM CST 6:06 PM CST
Astronomical Twilight 4:44 AM CST 6:32 PM CST
Moon 10:35 AM CST (11/18) 10:23 PM CST (11/18)
Length of Visible Light 12h 02m
Length of Day
11h 16m
Waxing Crescent, 30% of the Moon is Illuminated
Nov 18
Waxing Crescent
Nov 20
First Quarter
Nov 28
Full
Dec 6
Last Quarter
Dec 13
New

Hourly Weather History & Observations

Time (CST) Temp. Heat Index Dew Point Humidity Pressure Visibility Wind Dir Wind Speed Gust Speed Precip Events Conditions
12:00 AM 70 °F - 67 °F 88% 30.07 in 12 mi WSW 4.6 mph - -   Scattered Clouds
3:00 AM 67 °F - 65 °F 90% 30.07 in 12 mi West 4.6 mph - -   Scattered Clouds
5:00 AM 66.2 °F - 64.4 °F 94% 30.06 in 6.2 mi West 4.6 mph - N/A   Partly Cloudy
6:00 AM 65 °F - 64 °F 96% 30.09 in 12 mi West 6.9 mph - -   Scattered Clouds
6:00 AM 64.4 °F - 64.4 °F 100% 30.06 in 6.2 mi West 6.9 mph - N/A   Partly Cloudy
7:00 AM 66.2 °F - 64.4 °F 94% 30.09 in 6.2 mi West 6.9 mph - N/A   Partly Cloudy
8:00 AM 69.8 °F - 66.2 °F 88% 30.09 in 6.2 mi WNW 9.2 mph - N/A   Partly Cloudy
9:00 AM 74 °F - 68 °F 75% 30.13 in 16 mi NW 8.1 mph - -   Scattered Clouds
9:00 AM 75.2 °F - 68.0 °F 78% 30.13 in 6.2 mi NW 8.1 mph - N/A   Partly Cloudy
10:00 AM 77.0 °F - 68.0 °F 74% 30.12 in 6.2 mi NW 10.4 mph - N/A   Scattered Clouds
11:00 AM 78.8 °F - 66.2 °F 65% 30.09 in 6.2 mi WNW 8.1 mph - N/A   Mostly Cloudy
12:00 PM 80.6 °F 82.7 °F 66.2 °F 61% 30.07 in 6.2 mi NW 9.2 mph - N/A   Mostly Cloudy
1:00 PM 80.6 °F 82.3 °F 64.4 °F 58% 30.04 in 6.2 mi NW 9.2 mph - N/A Rain Light Rain Showers
2:00 PM 82.4 °F 84.6 °F 66.2 °F 58% 30.02 in 6.2 mi North 6.9 mph - N/A   Scattered Clouds
3:00 PM 83 °F - 63 °F 41% 30.02 in 16 mi WNW 10.4 mph - -   Partly Cloudy
3:00 PM 82.4 °F 83.4 °F 62.6 °F 51% 30.01 in 6.2 mi WNW 10.4 mph - N/A   Scattered Clouds
4:00 PM 80.6 °F 83.2 °F 68.0 °F 65% 30.02 in 6.2 mi East 4.6 mph - N/A   Scattered Clouds
5:00 PM 78.8 °F - 68.0 °F 69% 30.03 in 6.2 mi ENE 5.8 mph - N/A   Scattered Clouds
6:00 PM 77 °F - 69 °F 71% 30.06 in 12 mi Calm Calm - -   Partly Cloudy
6:00 PM 77.0 °F - 69.8 °F 78% 30.05 in 6.2 mi Calm Calm - N/A   Scattered Clouds
9:00 PM 72 °F - 68 °F 84% 30.10 in 12 mi Calm Calm - -   Partly Cloudy